This demonstration page uses our WeatherBlox Daily Observations layout. Learn more.

Hourly Observations for October 29, 2020

Temp ( °F °C ) Dew Point ( °F °C ) Humidity (%) Winds ( mph kmh ) Pressure ( in mb ) Visibility ( mi km ) Precip ( " mm )
12:15 am 00:15 Cloudy 55 13 54 12 94 94 NNE 6 9 29.97 1015 10 16.0934 0 0
12:35 am 00:35 Cloudy 55 13 54 12 94 94 NNE 5 7 29.96 1015 7 11.26538 0 0
12:55 am 00:55 Cloudy 55 13 54 12 94 94 Calm 29.95 1014 7 11.26538 0 0
1:15 am 01:15 Cloudy 55 13 54 12 94 94 Calm 29.94 1014 10 16.0934 0 0
1:35 am 01:35 Cloudy 55 13 54 12 94 94 NNE 5 7 29.94 1014 10 16.0934 0 0
1:55 am 01:55 Cloudy 55 13 54 12 94 94 NE 3 6 29.93 1014 10 16.0934 0 0
2:15 am 02:15 Cloudy 55 13 54 12 94 94 Calm 29.93 1014 10 16.0934 0 0
2:35 am 02:35 Cloudy 55 13 54 12 94 94 NE 3 6 29.91 1013 10 16.0934 0 0
2:55 am 02:55 Cloudy 55 13 54 12 94 94 NNE 5 7 29.91 1013 10 16.0934 0 0
3:15 am 03:15 Cloudy 54 12 54 12 100 100 NNE 3 6 29.91 1013 10 16.0934 0 0
3:35 am 03:35 Cloudy 54 12 54 12 100 100 NNE 3 6 29.9 1013 7 11.26538 0 0
3:55 am 03:55 Cloudy 54 12 54 12 100 100 NE 6 9 29.88 1012 5 8.0467 0 0
4:15 am 04:15 Cloudy 52 11 52 11 100 100 NNE 6 9 29.88 1012 5 8.0467 0 0
4:35 am 04:35 Cloudy 52 11 52 11 100 100 NE 7 11 29.87 1012 4 6.43736 0 0
4:55 am 04:55 Cloudy 52 11 52 11 100 100 NNE 5 7 29.87 1012 3 4.82802 0 0
5:15 am 05:15 Cloudy 52 11 52 11 100 100 NE 7 11 29.85 1011 4 6.43736 0 0
5:35 am 05:35 Cloudy 52 11 52 11 100 100 NE 7 11 29.84 1011 3 4.82802 0 0
5:55 am 05:55 Cloudy 52 11 52 11 100 100 NE 6 9 29.84 1011 3 4.82802 0 0
6:15 am 06:15 Cloudy 52 11 52 11 100 100 NE 6 9 29.83 1010 3 4.82802 0 0
6:35 am 06:35 Cloudy N/A N/A N/A Calm N/A 2.5 4.02335 0 0
6:55 am 06:55 Cloudy 50 10 50 10 100 100 ENE 10 17 29.82 1010 4 6.43736 0 0
7:15 am 07:15 Cloudy 50 10 50 10 100 100 ENE 6 9 29.82 1010 3 4.82802 0 0
7:35 am 07:35 Cloudy 50 10 50 10 100 100 ENE 6 9 29.8 1009 5 8.0467 0 0
7:55 am 07:55 Cloudy 50 10 50 10 100 100 ENE 8 13 29.78 1008 5 8.0467 0 0
8:15 am 08:15 Cloudy N/A N/A N/A ENE 7 11 N/A 7 11.26538 0 0
8:35 am 08:35 Cloudy N/A N/A N/A ENE 8 13 N/A 7 11.26538 0 0
8:55 am 08:55 Cloudy N/A N/A N/A ENE 7 11 N/A 7 11.26538 0 0
9:15 am 09:15 Cloudy 50 10 50 10 100 100 NE 7 11 29.75 1007 5 8.0467 0 0
9:35 am 09:35 Cloudy 50 10 50 10 100 100 NE 5 7 29.74 1007 4 6.43736 0 0
9:55 am 09:55 Cloudy N/A N/A N/A ENE 7 11 N/A 4 6.43736 0 0
10:15 am 10:15 Cloudy N/A N/A N/A NE 5 7 N/A 3 4.82802 0 0
10:35 am 10:35 Cloudy N/A N/A N/A NE 6 9 N/A 4 6.43736 0 0
10:55 am 10:55 Cloudy N/A N/A N/A Calm N/A 4 6.43736 0 0
11:15 am 11:15 Cloudy N/A N/A N/A NNE 5 7 N/A 3 4.82802 0 0
11:35 am 11:35 Cloudy N/A N/A N/A NNE 6 9 N/A 3 4.82802 0 0
11:55 am 11:55 Cloudy N/A N/A N/A NE 6 9 N/A 5 8.0467 0 0
12:15 pm 12:15 Cloudy 50 10 50 10 100 100 NE 6 9 29.64 1004 7 11.26538 0 0
12:35 pm 12:35 Cloudy 50 10 50 10 100 100 NE 7 11 29.6 1002 5 8.0467 0 0
12:55 pm 12:55 Cloudy N/A N/A N/A ENE 15 24 N/A 10 16.0934 0 0
1:15 pm 13:15 Cloudy 50 10 50 10 100 100 NE 7 11 29.55 1001 10 16.0934 0 0
1:35 pm 13:35 Cloudy 50 10 50 10 100 100 NNE 6 9 29.52 1000 7 11.26538 0 0
1:55 pm 13:55 Cloudy 46 8 46 8 100 100 NNE 7 11 29.5 999 4 6.43736 0 0
2:15 pm 14:15 Cloudy 46 8 46 8 100 100 NNE 10 17 29.48 998 5 8.0467 0 0
2:35 pm 14:35 Cloudy 46 8 46 8 100 100 NNE 12 19 29.47 998 4 6.43736 0 0
2:55 pm 14:55 Cloudy N/A N/A N/A N 17 28 N/A 4 6.43736 0 0
3:15 pm 15:15 Cloudy N/A N/A N/A N 21 33 N/A 10 16.0934 0 0
3:35 pm 15:35 Cloudy N/A N/A N/A N 14 22 N/A 10 16.0934 0 0
3:55 pm 15:55 Cloudy N/A N/A N/A NNE 13 20 N/A 10 16.0934 0 0
4:15 pm 16:15 Cloudy 45 7 45 7 100 100 N 10 17 29.48 998 10 16.0934 0 0
4:35 pm 16:35 Cloudy 45 7 45 7 100 100 NNE 10 17 29.49 999 7 11.26538 0 0
4:55 pm 16:55 Cloudy 45 7 45 7 100 100 NNW 12 19 29.51 999 5 8.0467 0 0
5:15 pm 17:15 Cloudy 45 7 45 7 100 100 NNW 13 20 29.54 1000 4 6.43736 0 0
5:35 pm 17:35 Cloudy N/A N/A N/A NNW 14 22 N/A 2 3.21868 0 0
5:55 pm 17:55 Cloudy N/A N/A N/A N 14 22 N/A 5 8.0467 0 0
6:15 pm 18:15 Cloudy N/A N/A N/A N 8 13 N/A 10 16.0934 0 0
6:35 pm 18:35 Cloudy 43 6 43 6 100 100 N 8 13 29.58 1002 10 16.0934 0 0
6:55 pm 18:55 Cloudy 43 6 43 6 100 100 NNE 3 6 29.59 1002 10 16.0934 0 0
7:15 pm 19:15 Cloudy 43 6 43 6 100 100 NNE 7 11 29.59 1002 7 11.26538 0 0
7:35 pm 19:35 Cloudy 43 6 43 6 100 100 NNE 6 9 29.59 1002 5 8.0467 0 0
7:55 pm 19:55 Cloudy 43 6 43 6 100 100 N 3 6 29.6 1002 10 16.0934 0 0
8:15 pm 20:15 Cloudy 43 6 43 6 100 100 NNW 3 6 29.63 1003 7 11.26538 0 0
8:35 pm 20:35 Cloudy 43 6 43 6 100 100 N 5 7 29.63 1003 7 11.26538 0 0
8:55 pm 20:55 Cloudy 43 6 43 6 100 100 N 7 11 29.63 1003 10 16.0934 0 0
9:15 pm 21:15 Cloudy 43 6 43 6 100 100 N 7 11 29.64 1004 10 16.0934 0 0
9:35 pm 21:35 Cloudy 43 6 43 6 100 100 N 9 15 29.65 1004 10 16.0934 0 0
9:55 pm 21:55 Cloudy 43 6 43 6 100 100 N 10 17 29.65 1004 10 16.0934 0 0
10:15 pm 22:15 Cloudy 43 6 43 6 100 100 N 9 15 29.65 1004 10 16.0934 0 0
10:35 pm 22:35 Cloudy 43 6 43 6 100 100 N 8 13 29.65 1004 10 16.0934 0 0
10:55 pm 22:55 Cloudy 43 6 43 6 100 100 N 5 7 29.66 1004 10 16.0934 0 0
11:15 pm 23:15 Cloudy 43 6 43 6 100 100 NNE 6 9 29.66 1004 10 16.0934 0 0
11:35 pm 23:35 Cloudy 43 6 43 6 100 100 N 6 9 29.65 1004 10 16.0934 0 0
11:55 pm 23:55 Cloudy 43 6 43 6 100 100 NNE 8 13 29.64 1004 10 16.0934 0 0

Powered by AerisWeather